Lapse_Rate
8.2 8.2 8.0 7.9 8.0 7.8 7.9 7.8 7.8 7.8 7.5 7.3 7.1 6.9 6.7 6.8 6.5 6.1 6.0 6.1 6.1 6.3 6.5 6.3 5.8 5.7 5.7 5.8 5.8 5.9 6.1 5.9 5.9 5.7 5.4 5.6 5.7 5.8 5.5 5.4 5.4 5.3 5.3
8.0 8.1 8.1 8.0 8.0 7.8 7.6 7.8 7.9 7.6 7.5 7.3 7.2 6.8 6.8 6.8 6.4 6.1 5.9 5.8 5.9 6.1 6.2 6.2 6.0 5.9 5.7 5.7 5.8 5.8 6.0 6.1 5.9 5.7 6.2 5.3 5.6 5.6 5.5 5.6 5.5 5.4 5.5
8.0 8.0 8.1 7.7 7.7 7.8 7.6 7.4 7.4 7.0 7.2 7.2 7.2 6.8 6.8 6.7 6.5 6.1 5.9 5.7 5.9 6.2 6.1 6.1 6.0 6.0 5.8 5.9 5.9 5.9 5.9 6.2 6.1 5.8 5.8 5.7 6.0 5.8 5.6 5.8 5.5 5.4 5.6
8.0 8.1 8.1 8.2 8.0 7.3 7.4 7.5 6.9 7.0 6.9 7.0 7.1 7.0 6.6 6.5 6.4 6.3 6.2 5.8 5.9 6.2 6.0 5.8 6.0 5.9 5.8 5.7 5.9 6.0 5.9 6.1 6.0 5.9 5.7 5.2 5.1 5.7 5.9 5.8 5.6 5.4 5.6
8.2 8.2 8.2 8.1 7.7 7.9 7.5 7.2 6.7 6.8 6.8 6.9 6.7 6.7 6.4 6.4 6.4 6.4 6.3 6.0 5.7 5.8 5.8 5.7 5.8 5.7 5.9 5.9 5.8 6.0 6.1 5.9 6.2 6.0 5.8 5.8 5.7 5.8 5.2 5.1 5.5 5.3 5.5
8.2 8.3 8.1 7.9 7.8 7.7 7.3 7.0 7.0 6.8 6.7 6.4 6.3 6.4 6.4 6.2 6.3 6.4 6.4 6.0 5.8 5.7 5.8 5.8 5.7 5.7 5.7 5.9 5.9 6.0 5.9 5.9 6.2 6.1 5.9 5.8 5.7 5.7 5.2 5.4 5.5 5.3 5.2
8.3 8.1 8.1 8.0 7.8 7.5 7.2 7.2 6.8 6.8 6.4 6.1 6.2 6.3 6.5 6.4 6.5 6.4 6.5 6.3 6.0 5.8 5.7 5.8 5.8 5.7 5.8 5.9 6.0 5.9 5.9 5.8 6.0 6.1 6.0 6.0 5.7 5.7 5.6 5.5 5.4 5.2 5.3
8.2 7.9 7.6 7.6 7.8 7.4 6.9 6.8 6.8 6.5 6.2 6.1 6.2 6.2 6.5 6.4 6.5 6.4 6.4 6.2 6.2 5.9 5.6 5.7 5.8 5.5 5.7 5.9 5.9 5.9 5.7 5.8 5.9 6.0 6.1 6.0 5.9 5.8 5.5 5.5 5.4 5.3 5.5
8.1 7.8 7.8 7.7 7.4 6.9 6.7 6.8 6.5 6.3 6.1 6.2 6.3 6.3 6.2 6.4 6.2 6.4 6.2 6.2 6.1 5.9 5.8 5.6 5.6 5.7 5.8 5.8 6.0 5.9 5.6 5.7 5.8 6.0 6.1 6.1 5.9 5.7 5.6 5.5 5.4 5.6 5.6
7.8 7.7 7.8 7.4 6.9 6.9 6.9 6.5 6.1 6.2 6.4 6.5 6.4 6.2 6.2 6.4 6.2 6.2 6.0 5.8 6.0 6.0 5.8 5.7 5.6 5.6 5.7 5.8 5.8 5.9 5.8 5.7 5.7 5.9 6.0 5.9 5.9 5.7 5.8 5.7 5.9 5.7 4.8
7.8 7.7 7.3 7.0 7.2 7.1 6.5 6.2 6.2 6.4 6.3 6.4 6.3 6.3 6.3 6.2 6.2 5.9 5.9 5.7 5.9 6.0 5.9 5.8 5.6 5.5 5.5 5.7 5.5 5.7 5.9 5.8 5.9 6.0 5.9 5.9 6.0 5.9 6.0 5.7 5.8 5.6 5.1
7.6 7.4 7.3 7.1 7.1 6.4 6.1 6.1 6.1 6.1 6.2 6.2 6.3 6.4 6.3 6.1 6.1 5.8 5.8 5.4 5.7 5.8 5.8 5.9 5.6 5.4 5.6 5.8 5.6 5.8 5.8 5.8 5.8 6.0 5.9 5.9 6.0 6.0 6.0 6.1 5.9 5.8 5.4
7.5 7.2 7.2 6.9 6.3 6.0 6.0 6.0 6.0 6.1 6.2 6.2 6.4 6.4 6.3 6.2 5.9 5.6 5.8 5.7 5.7 5.8 5.8 5.8 5.8 5.6 5.7 5.8 5.9 5.9 5.9 5.7 5.6 5.6 5.6 5.8 6.0 6.1 6.0 6.0 6.1 5.7 5.5
6.9 6.9 6.7 6.2 5.9 5.9 6.0 5.9 6.0 6.2 6.0 6.3 6.4 6.4 6.3 6.2 6.0 5.7 5.4 5.5 5.7 5.7 5.7 5.7 5.7 5.8 5.6 5.7 5.7 5.8 5.8 5.7 5.6 5.6 5.6 6.0 6.1 6.2 5.9 6.1 5.5 5.4 5.0
6.5 6.3 6.0 5.8 5.8 5.9 5.9 6.0 6.1 6.1 5.9 6.2 6.4 6.3 6.3 6.2 5.9 5.8 5.8 5.8 5.9 5.8 5.8 5.7 5.7 5.8 5.6 5.7 5.5 5.6 5.7 5.6 5.7 5.6 5.9 6.0 5.9 5.9 5.8 5.5 5.6 5.4 5.1
6.3 5.9 5.9 5.9 5.9 5.8 5.9 6.1 6.1 6.1 5.8 6.0 6.3 6.1 6.1 6.1 6.0 5.8 5.8 5.8 5.8 5.9 6.0 5.8 5.7 5.6 5.7 5.9 5.9 5.7 5.7 5.6 5.8 5.7 6.1 6.0 5.2 5.8 5.8 5.4 5.3 5.1 4.9
5.9 5.7 5.9 5.9 5.8 5.9 6.0 6.2 6.0 5.8 5.8 6.0 6.1 6.1 6.2 6.3 6.2 6.2 6.1 6.2 6.1 6.0 6.1 6.0 5.9 5.9 6.0 5.7 5.7 5.7 5.8 5.8 5.8 5.8 6.1 5.0 6.0 5.7 5.4 5.6 5.2 5.0 4.9
5.8 5.7 5.8 5.7 5.8 6.0 6.0 5.9 5.8 5.7 5.9 5.9 5.9 6.1 6.3 6.2 6.3 6.3 6.2 6.2 6.2 6.2 6.1 6.0 6.1 6.1 5.9 5.8 5.7 5.7 5.8 5.7 5.9 5.7 5.4 5.7 5.6 5.5 5.2 5.4 5.3 4.9 4.8
5.9 5.7 5.8 5.8 5.9 5.9 5.9 5.8 5.8 5.6 5.8 5.9 5.9 5.8 6.0 6.1 6.1 6.2 5.9 6.0 6.1 6.1 6.0 6.2 6.0 5.8 5.7 5.6 5.7 5.7 5.8 5.7 5.6 5.8 5.3 5.2 5.6 5.5 5.3 5.3 5.0 4.5 5.1
5.8 5.8 5.9 5.8 5.9 6.0 5.8 5.7 5.9 5.9 5.8 6.0 5.9 6.1 6.0 6.1 6.2 6.1 6.1 5.8 5.9 5.9 6.0 6.0 5.7 5.6 5.6 5.7 5.5 5.8 5.9 5.2 5.8 5.4 5.4 5.2 5.1 5.0 4.9 4.9 4.8 5.1 4.9
5.8 5.8 6.0 5.8 6.0 6.0 5.8 5.8 5.8 5.9 5.5 5.7 5.8 6.0 6.0 6.1 6.0 6.0 6.0 6.1 5.9 6.1 6.0 5.9 5.3 5.2 5.4 5.5 5.5 5.6 5.5 5.4 5.1 5.1 5.0 4.9 4.9 5.0 4.9 5.1 5.0 5.2 5.2
6.0 6.0 6.1 6.0 6.1 6.0 5.7 5.5 5.8 6.1 5.7 5.6 5.5 5.7 5.8 5.9 6.0 6.0 5.9 6.4 6.1 6.0 6.1 5.6 5.4 5.2 5.3 5.1 5.3 5.6 5.6 5.6 5.5 5.1 4.9 5.1 5.3 5.1 4.9 5.2 5.1 5.3 5.3
6.1 6.1 6.1 6.2 6.0 5.9 5.6 5.4 5.7 5.6 5.4 5.6 5.6 5.6 5.7 5.7 5.6 5.7 5.8 6.0 6.2 5.9 5.9 5.8 5.7 5.4 5.5 5.4 5.3 5.5 5.4 5.5 5.6 5.2 5.3 5.6 5.3 5.3 4.9 5.1 5.3 5.3 5.2
6.2 6.3 6.2 6.1 5.9 5.7 5.6 5.3 5.5 5.6 5.4 5.6 5.3 5.4 5.4 5.3 5.2 5.2 5.4 5.6 5.8 5.8 5.9 5.9 5.8 5.5 5.3 5.1 5.5 5.3 5.3 5.0 5.0 5.5 5.5 5.4 5.3 5.3 5.2 5.0 5.1 5.3 5.5
6.2 6.3 6.3 6.0 5.7 5.8 5.7 5.5 5.6 5.7 5.6 5.4 5.5 5.6 5.1 4.8 5.0 5.0 5.1 5.7 5.5 5.5 4.7 5.0 5.1 5.1 5.4 5.3 5.1 5.2 5.1 5.3 5.8 5.8 5.6 5.3 5.1 5.1 5.1 5.3 5.5 5.7 5.5
6.2 6.2 6.3 6.0 5.8 5.7 5.9 5.7 5.6 5.7 5.6 5.4 5.5 5.4 5.1 4.8 4.9 4.9 5.2 5.2 5.6 4.9 5.0 5.1 4.5 4.8 4.8 4.8 5.0 5.2 5.3 5.7 5.8 5.5 5.1 5.0 5.1 5.3 5.4 5.5 5.3 5.3 5.3
Wind_Speed
8 6 5 5 6 7 6 4 4 4 4 5 6 6 6 8 8 9 9 12 14 14 15 16 14 16 14 10 10 11 14 15 18 19 16 14 12 10 18 19 18 16 13
7 7 6 5 4 5 6 4 3 4 4 4 5 6 8 8 8 9 9 8 12 14 14 17 18 17 15 12 10 11 12 14 17 19 20 18 15 12 14 18 19 17 17
10 8 6 4 3 6 7 3 3 2 3 3 6 4 5 7 6 7 8 8 8 11 14 16 13 15 14 13 11 12 12 13 16 19 23 16 17 18 12 14 17 19 19
14 8 8 6 7 7 4 3 3 3 4 3 3 4 4 5 6 6 6 7 8 8 9 15 16 14 14 13 12 12 13 13 12 15 22 23 18 18 16 14 20 22 23
15 10 8 8 7 4 2 5 2 3 3 3 5 4 5 5 6 4 6 7 8 7 7 14 15 14 13 11 12 13 13 12 12 13 20 17 17 14 14 14 20 25 27
12 9 8 5 5 4 4 3 3 2 2 2 5 6 5 5 4 5 6 6 6 8 7 6 7 9 11 10 11 12 10 12 12 12 16 22 22 22 18 16 21 26 28
12 11 6 7 7 6 5 5 3 3 3 3 2 3 3 5 6 5 4 5 5 6 6 7 6 5 6 10 11 10 10 11 12 12 13 20 25 23 18 20 22 29 28
10 11 8 7 8 5 5 4 4 2 3 4 2 0 2 2 1 4 4 4 6 3 4 8 7 7 6 6 9 12 10 10 10 12 10 20 23 22 20 23 25 31 29
10 10 10 8 7 5 5 5 5 5 3 2 5 2 1 2 1 1 2 2 3 3 3 4 7 7 7 7 8 11 12 10 8 11 11 19 23 22 21 25 31 30 29
8 8 8 8 7 4 5 4 4 3 3 3 2 4 1 1 1 1 1 0 1 2 4 3 4 6 8 7 9 10 13 13 10 10 14 15 22 21 22 36 37 30 29
5 7 8 8 6 4 4 5 4 4 3 3 2 2 3 0 0 1 1 1 1 1 3 3 3 3 5 7 7 9 14 15 12 15 19 16 20 30 39 37 34 31 27
4 6 7 6 5 4 4 4 4 5 5 3 3 3 3 3 3 2 2 1 1 1 1 1 1 1 3 7 8 10 13 15 15 19 23 31 38 38 35 34 31 29 26
2 4 5 5 3 4 5 4 4 4 4 4 5 4 3 3 2 2 3 2 2 1 0 1 1 1 1 4 6 9 11 15 18 29 30 33 37 35 34 31 32 29 25
5 5 5 5 5 5 4 4 2 3 4 3 5 5 4 4 3 3 4 4 2 2 0 1 0 1 2 4 4 9 7 16 26 34 32 35 35 34 33 30 26 24 23
4 5 5 5 5 4 4 4 3 4 3 4 5 5 5 3 4 3 2 2 3 3 1 1 1 1 2 4 6 6 9 21 25 30 35 33 31 31 28 27 26 24 21
5 6 5 5 5 4 4 4 3 3 4 3 3 6 5 3 4 3 3 3 1 2 3 1 1 1 3 4 9 8 11 23 32 31 34 40 31 29 30 31 29 21 21
6 5 5 4 3 4 4 3 4 5 5 4 4 5 5 5 3 4 4 3 3 2 4 2 1 5 4 7 7 11 15 19 28 39 34 34 34 33 33 28 25 22 22
5 5 4 2 3 4 4 4 4 4 5 6 6 5 4 4 4 4 3 5 5 3 5 6 2 3 4 8 9 12 10 19 24 34 34 37 34 31 28 23 23 23 22
5 4 3 3 3 2 1 2 3 3 4 4 5 5 4 6 5 5 5 5 5 5 7 7 4 3 4 9 12 12 15 16 25 33 30 35 32 26 22 21 22 20 19
5 2 4 4 4 3 2 2 2 2 3 1 3 5 5 8 7 7 7 8 8 8 9 8 8 7 6 6 11 13 12 13 12 19 19 18 24 22 18 17 18 19 18
4 4 6 5 4 4 3 3 3 2 4 3 2 3 6 8 9 7 7 8 11 10 9 9 9 8 8 8 12 9 13 11 8 7 8 8 12 10 11 10 12 16 18
4 5 5 5 3 3 7 6 2 3 4 5 5 7 6 10 9 11 10 8 10 11 12 9 9 11 10 9 9 11 13 11 6 7 6 4 6 3 4 5 8 16 18
4 5 5 4 3 3 6 4 4 3 5 6 8 7 7 6 9 9 11 13 12 12 10 12 13 12 12 12 12 12 12 7 5 5 8 3 2 5 4 3 9 16 18
4 5 4 3 2 4 4 7 8 6 6 7 7 8 8 8 9 10 10 11 10 11 10 9 11 12 13 11 11 11 11 11 8 5 4 3 1 2 2 2 6 13 16
3 3 3 3 2 5 4 6 7 5 7 7 6 7 8 9 9 11 13 13 14 11 17 22 22 23 24 22 17 11 10 11 7 3 2 3 2 2 1 2 5 9 14
3 3 4 2 4 5 5 8 7 5 6 5 6 7 11 10 11 13 14 13 14 12 15 16 13 12 20 17 11 6 10 10 8 6 3 3 3 3 3 2 4 7 9
Wind_Direction
190 180 190 183 208 205 197 197 206 200 208 221 227 231 237 241 246 258 259 258 260 242 243 233 229 220 226 220 220 226 222 213 200 192 190 192 186 183 188 184 177 172 164
181 192 183 205 215 201 201 205 191 206 215 212 235 230 238 240 245 249 253 261 263 258 241 231 233 217 216 218 215 219 227 219 207 195 190 180 170 199 194 185 184 164 158
180 171 186 202 211 198 219 182 205 195 222 229 245 238 237 239 241 248 253 256 263 263 259 236 213 200 219 220 220 215 219 232 216 202 193 195 176 188 161 169 169 156 150
164 169 185 179 191 196 175 193 185 193 221 219 239 245 235 232 240 244 264 260 253 260 258 217 202 205 210 221 228 220 214 221 222 211 194 196 178 160 143 153 154 150 144
178 187 181 194 199 190 207 173 176 181 207 233 243 249 244 237 237 244 254 258 243 247 239 216 209 209 212 225 232 228 216 213 218 213 203 196 166 147 162 168 157 153 141
184 178 185 165 154 169 175 156 179 183 223 254 274 271 253 244 231 234 237 254 240 231 225 223 203 222 227 221 233 230 225 215 215 211 204 187 169 172 179 182 156 149 140
182 184 164 166 158 185 182 177 132 187 227 218 274 282 266 239 237 225 219 234 227 215 202 194 218 208 234 237 226 228 223 219 212 211 196 183 178 173 168 157 156 141 128
167 172 172 186 162 152 169 161 158 175 227 197 200 246 308 327 264 233 218 216 221 188 194 194 208 214 221 213 218 221 219 214 215 209 184 172 177 170 170 160 154 128 127
169 166 162 156 160 163 175 172 175 176 195 188 209 169 175 245 311 14 202 197 210 208 199 192 207 202 202 205 210 224 210 204 201 193 180 176 176 170 163 152 129 126 127
162 165 144 141 156 154 170 181 172 168 159 188 200 220 186 169 179 20 23 210 180 218 230 201 205 203 207 198 206 209 199 197 193 177 171 170 156 155 149 129 129 126 129
149 139 143 151 145 154 167 170 161 178 183 177 178 154 207 213 120 103 76 4 60 299 240 220 203 204 202 197 194 197 197 195 185 167 162 167 148 138 131 134 136 141 137
127 130 133 131 144 148 162 182 183 184 192 190 186 185 175 171 193 174 119 96 38 261 194 94 178 178 189 189 190 198 196 195 181 165 160 138 129 133 135 139 146 140 149
120 135 120 137 139 160 186 178 179 200 193 195 193 207 205 199 161 149 121 129 146 134 126 96 157 83 204 199 209 193 190 191 175 148 141 139 137 140 142 149 144 152 155
134 147 134 141 160 182 182 186 187 202 204 214 210 214 215 209 182 164 155 154 137 138 77 138 135 131 214 196 196 173 158 175 156 146 142 140 142 147 145 145 150 155 152
136 142 151 155 173 181 185 191 202 217 195 208 215 213 216 208 196 181 169 161 147 157 168 211 104 101 154 145 128 134 145 153 141 139 138 133 134 138 143 146 145 150 154
133 139 140 157 178 192 197 198 214 214 223 223 222 212 207 194 189 182 184 174 160 138 137 143 120 96 113 107 133 134 144 133 124 118 130 125 134 134 139 142 144 149 144
136 144 153 163 185 214 219 202 231 217 220 218 223 216 216 184 182 184 183 170 177 138 122 94 82 102 73 95 92 103 116 121 124 124 126 125 134 140 139 141 147 151 146
136 133 147 168 239 246 221 211 238 222 215 208 222 213 222 166 172 180 168 170 173 133 134 121 70 82 86 101 99 98 98 113 120 120 122 125 129 133 131 138 142 146 142
131 154 151 197 154 85 26 247 231 231 208 222 217 199 181 150 157 149 140 139 134 131 131 122 115 96 87 109 98 99 104 98 102 99 101 112 116 124 136 136 135 135 134
141 152 130 121 85 77 21 329 242 189 144 153 194 194 166 160 163 146 139 136 131 121 117 116 118 112 108 116 112 118 106 107 109 110 102 110 120 129 130 133 132 134 143
154 140 116 89 75 62 41 15 70 100 111 83 63 118 140 154 148 143 144 142 139 132 129 130 127 122 123 132 125 122 114 115 95 111 110 99 107 95 80 114 139 143 145
145 132 105 102 84 64 7 31 51 101 117 105 91 86 105 113 112 111 110 116 146 141 139 132 139 138 134 127 130 130 127 133 128 119 106 75 97 91 94 102 144 151 155
140 120 108 104 86 49 12 92 87 101 107 111 110 108 99 105 114 112 99 94 88 113 121 139 139 142 134 138 136 129 127 122 115 122 117 88 69 97 43 74 161 164 167
157 126 118 100 83 46 25 100 103 95 97 98 109 122 125 120 127 121 116 104 100 118 129 129 126 131 129 125 125 124 120 109 96 87 104 98 80 99 104 114 178 178 179
114 119 118 130 89 65 39 113 112 96 98 97 109 109 113 119 124 111 112 108 99 87 79 91 98 105 110 115 126 122 129 130 124 125 71 115 132 99 151 173 176 190 185
130 128 121 101 86 86 72 126 110 109 103 95 84 98 99 121 118 115 115 115 112 110 110 105 102 94 113 121 115 126 145 138 132 135 168 108 146 162 181 188 187 188 195